Regional Weather Roundup
Issued by NWS Northern Indiana

Home | Current Version | Previous Version | Text Only | Print | Product List | Glossary Off
Versions: 1 2 3 4 5 6 7 8 9 10 11 12 13 14 15 16 17 18 19 20 21 22 23 24 25 26 27 28 29 30 31 32 33 34 35 36 37 38 39 40 41 42 43 44 45 46 47 48 49 50

000
ASUS43 KIWX 241810
RWRIWX

KIWX WEATHER ROUNDUP
NATIONAL WEATHER SERVICE NORTHERN INDIANA
100 PM EST FRI NOV 24 2017

NOTE: "FAIR" INDICATES FEW OR NO CLOUDS BELOW 12,000 FEET WITH NO
SIGNIFICANT WEATHER AND/OR OBSTRUCTIONS TO VISIBILITY.

* THESE STATIONS ARE NOT UNDER NWS QUALITY CONTROL. THEY ALSO MAY NOT
  REPORT WEATHER SUCH AS PRECIPITATION OR FOG.

INZ001>027-241900-
NORTHERN INDIANA

CITY           SKY/WX    TMP DP  RH WIND       PRES   REMARKS
GARY*          SUNNY     57  30  35 S14G30    29.65F
VALPARAISO     SUNNY     56  34  43 S14G25    29.69F
6HR MIN TEMP:  33; 6HR MAX TEMP:  56;

MICHIGAN CITY* SUNNY     54  32  43 S14G25    29.67F
LAPORTE*       SUNNY     52  34  50 S15G24    29.69F
6HR MIN TEMP:  31; 6HR MAX TEMP:  52;

KNOX*          SUNNY     52  32  46 S20       29.71F
SOUTH BEND     SUNNY     52  34  50 S16       29.71F
6HR MIN TEMP:  31; 6HR MAX TEMP:  52;

GOSHEN         SUNNY     52  31  44 S20       29.71F
6HR MIN TEMP:  32; 6HR MAX TEMP:  52;

MONTICELLO*    SUNNY     54  32  44 SW13G21   29.74F
6HR MIN TEMP:  32; 6HR MAX TEMP:  54;

LOGANSPORT*    SUNNY     52  34  50 S16       29.77F
ROCHESTER*     SUNNY     54  32  43 S14       29.74F
WARSAW*        SUNNY     50  32  50 SW7       29.74F
AUBURN*        SUNNY     52  30  43 SW13      29.76F
FORT WAYNE     MOSUNNY   54  34  46 SW17      29.77F
6HR MIN TEMP:  30; 6HR MAX TEMP:  54;

HUNTINGTON*    SUNNY     53  30  41 SW12G18   29.77F
6HR MIN TEMP:  32; 6HR MAX TEMP:  53;

PERU/GRISSOM   SUNNY     53  34  48 S15       29.75F
6HR MIN TEMP:  31; 6HR MAX TEMP:  53;

MARION*        SUNNY     50  33  52 S18G24    29.79F
6HR MIN TEMP:  23; 6HR MAX TEMP:  58;


$$
INZ028>050-241900-
CENTRAL INDIANA

CITY           SKY/WX    TMP DP  RH WIND       PRES   REMARKS
LAFAYETTE      SUNNY     54  33  45 SW13G21   29.76F
6HR MIN TEMP:  31; 6HR MAX TEMP:  54;

KOKOMO*        SUNNY     54  34  46 S15       29.78F
6HR MIN TEMP:  31; 6HR MAX TEMP:  54;

MUNCIE*        SUNNY     55  29  36 SW15G26   29.79F
6HR MIN TEMP:  35; 6HR MAX TEMP:  55;

INDIANAPOLIS   PTSUNNY   54  30  40 S17       29.82F
6HR MIN TEMP:  30; 6HR MAX TEMP:  55;


$$
MIZ043>046-050>051-056>058-064>065-071>073-077>080-241900-
SOUTHWEST LOWER MICHIGAN

CITY           SKY/WX    TMP DP  RH WIND       PRES   REMARKS
BATTLE CREEK   SUNNY     52  32  46 S21       29.68F
6HR MIN TEMP:  31; 6HR MAX TEMP:  52;

BENTON HARBOR  SUNNY     54  31  41 S15G24    29.64F
6HR MIN TEMP:  34; 6HR MAX TEMP:  55;

COLDWATER*     SUNNY     53  28  39 SW13      29.71F
6HR MIN TEMP:  33; 6HR MAX TEMP:  53;

HILLSDALE*     SUNNY     50  28  43 SW13G20   29.72F
HOLLAND        SUNNY     57  34  41 S14G26    29.61F
6HR MIN TEMP:  34; 6HR MAX TEMP:  57;

GRAND RAPIDS   PTSUNNY   55  34  45 SW14G28   29.62F
6HR MIN TEMP:  33; 6HR MAX TEMP:  55;

KALAMAZOO      SUNNY     53  30  41 S17       29.68F
6HR MIN TEMP:  32; 6HR MAX TEMP:  53;

STURGIS*       SUNNY     50  33  51 SW17      29.70F
6HR MIN TEMP:  31; 6HR MAX TEMP:  50;

THREE RIVERS*  FAIR      52  33  48 S15G23    29.70F
6HR MIN TEMP:  32; 6HR MAX TEMP:  52;


$$
OHZ001>008-015>018-024>025-241900-
NORTHWEST OHIO

CITY           SKY/WX    TMP DP  RH WIND       PRES   REMARKS
WAUSEON*       FAIR      52  30  43 SW17G24   29.76F
DEFIANCE       SUNNY     50  31  48 SW13      29.77F
6HR MIN TEMP:  30; 6HR MAX TEMP:  50;

FINDLAY        SUNNY     52  28  39 S20       29.79F
6HR MIN TEMP:  31; 6HR MAX TEMP:  52;

TOLEDO EXPRESS SUNNY     52  32  46 S12G21    29.76F
6HR MIN TEMP:  32; 6HR MAX TEMP:  52;

TOLEDO METCALF SUNNY     51  29  42 SW20G28   29.78F
6HR MIN TEMP:  29; 6HR MAX TEMP:  51;

LIMA           SUNNY     51  30  44 S17G26    29.80F
6HR MIN TEMP:  32; 6HR MAX TEMP:  51;


$$
AND FOR LAKE MICHIGAN COASTAL AND OPEN LAKE BUOY OBSERVATIONS

STATION/POSITION TEMP    WIND        PRES    VSBY  WAVE
                 AIR SEA DIR/SP/G                  HT/PER
                 (F)     (DEG/KT/KT) (MB)    (MI)  (FT/S)
CALUMET HARBOR    54     170/ 12/ 18 1002.8F
MICHIGAN CITY     51     160/ 17/ 23   N/A
BURNS HARBOR      53     180/ 19     1004.7F
SAINT JOSEPH      54     190/  7/ 15 1003.7
SOUTH LAKE BUOY   46 47  200/ 25/ 31 1002.9          6/ 6

$$
&&



USA.gov is the U.S. government's official web portal to all federal, state and local government web resources and services.